"Pseudo-MPEC" for P10N2gf

Created 2019 Apr 21 15:07:24 UT using Find_Orb

Click here for an explanation of pseudo-MPECs

 
 Astrometry: 
     P10N2gf  C2019 04 083Wv-vAstrometry1[Nredacted;wbq5click1here)+/B+k;*WS=F51
     P10N2gf  C2019 04 08fg1vIEh\VCRO$Z'@+p,h!od``%DqXa7EMhHLV^(O'4X`o_ZT/@wdF51
     P10N2gf  C2019 04 086aKPAoHyW9y^'!0^`8gAE[u+*:\'%LB*#cyK=0HFqX^1JKSQp4U*F51
     P10N2gf  C2019 04 15.41855 16 40 33.45 +39 05 40.9    ~4FAm 22.1 GVNEOCPV06
     P10N2gf  C2019 04 15.42440 16 40 33.43 +39 05 48.0    ~4FAm 21.9 GVNEOCPV06
     P10N2gf  C2019 04 15.43024 16 40 33.46 +39 05 55.5    ~4FAm 22.1 GVNEOCPV06
     P10N2gf ^C2019 04 16dJAk)m43pQfunQ:dy`\XDm\I3?inOsXy:$(.8;$C[82n2T^DR,!,695
     P10N2gf ^C2019 04 16ntubIItcx*K6y*for4[^LmRN%`g#8M*mYRg/nkXhmugR!WQ+k2C=695
     P10N2gf ^C2019 04 16uF_[explanationgcM:G@sSa\GRn5jRE4)*%pMCPCi]0RdJS*w,k695

Station data:
(695) Kitt Peak  (N31.958398 W111.594670)  US/Arizona.
(F51) Pan-STARRS 1, Haleakala  (N20.707235 W156.255910)  US/Hawaii.
   Observers N. Primak, A. Schultz, S. Watters, J. Thiel, T. Goggia. Measurer
   PS1 Science Consortium. 1.8-m Ritchey-Chrétien + CCD.
(V06) Catalina Sky Survey-Kuiper  (N32.416847 W110.732550)  US/Arizona.
   Observers T. A. Pruyne, B. M. Africano, E. J. Christensen, G. A. Farneth,
   D. C. Fuls, A. R. Gibbs, A. D. Grauer, H. Groeller, J. A. Johnson, R. A.
   Kowalski, S. M. Larson, G. J. Leonard, R. L. Seaman, F. C. Shelly. 1.55-m
   reflector + CCD.

Orbital elements:  P10N2gf
   Perihelion 2019 Sep 2.246566 +/- 9.38 TT =  5:55:03 (JD 2458728.746566)
Epoch 2019 Apr 16.0 TT = JDT 2458589.5                        AutoNEOCP
M 319.18877536 +/- 3.1              (J2000 ecliptic)
n   0.29308603 +/- 0.00334          Peri.  117.91544 +/- 3.9
a   2.24460173 +/- 0.017            Node   156.32209 +/- 0.35
e   0.1044002 +/- 0.002             Incl.   40.77359 +/- 0.16
P   3.36                   H 18.9   G  0.15   U  8.9  
q 2.01026471 +/- 0.0154    Q 2.47893875 +/- 0.0204
From 9 observations 2019 Apr. 8-16; mean residual 0".10
Residuals in arcseconds: 
190408 F51  .06-  .05+    190415 V06  .07+  .14+    190416 695  .23+  .01+    
190408 F51  .03-  .00     190415 V06  .20-  .14-    190416 695  .15-  .04-    
190408 F51  .09+  .04-    190415 V06  .12+  .00     190416 695  .07-  .03+    

Ephemerides (geocentric):
Date (UTC) HH   RA              Dec         delta   r     elong  mag " sig PA
---- -- -- --  -------------   -----------  ------ ------ -----  --- ---- ---
2019 04 21 15  16 40 10.202   +41 09 56.71  1.4409 2.0740 114.8 22.5 3.83  92
2019 04 21 16  16 40 09.754   +41 10 44.18  1.4409 2.0739 114.8 22.5 3.87  92
2019 04 21 17  16 40 09.303   +41 11 31.61  1.4408 2.0739 114.8 22.5 3.91  92
2019 04 21 18  16 40 08.847   +41 12 19.01  1.4407 2.0738 114.8 22.5 3.95  92
2019 04 21 19  16 40 08.387   +41 13 06.37  1.4407 2.0738 114.8 22.5 3.99  92
2019 04 21 20  16 40 07.923   +41 13 53.69  1.4406 2.0738 114.8 22.5 4.03  92
2019 04 21 21  16 40 07.456   +41 14 40.98  1.4406 2.0737 114.8 22.5 4.08  92
2019 04 21 22  16 40 06.985   +41 15 28.22  1.4405 2.0737 114.8 22.5 4.12  92
2019 04 21 23  16 40 06.509   +41 16 15.43  1.4404 2.0737 114.8 22.5 4.16  92
2019 04 22 00  16 40 06.030   +41 17 02.61  1.4404 2.0736 114.8 22.5 4.21  92
2019 04 22 01  16 40 05.547   +41 17 49.74  1.4403 2.0736 114.8 22.5 4.25  92
2019 04 22 02  16 40 05.060   +41 18 36.84  1.4403 2.0736 114.8 22.5 4.29  92
2019 04 22 03  16 40 04.569   +41 19 23.90  1.4402 2.0735 114.8 22.5 4.33  92
2019 04 22 04  16 40 04.075   +41 20 10.92  1.4402 2.0735 114.8 22.5 4.38  92
2019 04 22 05  16 40 03.576   +41 20 57.91  1.4401 2.0734 114.8 22.5 4.42  92
2019 04 22 06  16 40 03.074   +41 21 44.85  1.4400 2.0734 114.8 22.5 4.47  92
2019 04 22 07  16 40 02.567   +41 22 31.76  1.4400 2.0734 114.8 22.5 4.51  92
2019 04 22 08  16 40 02.057   +41 23 18.63  1.4399 2.0733 114.8 22.5 4.55  92
2019 04 22 09  16 40 01.543   +41 24 05.46  1.4399 2.0733 114.8 22.5 4.60  92
2019 04 22 10  16 40 01.025   +41 24 52.26  1.4398 2.0733 114.8 22.5 4.64  92
2019 04 22 11  16 40 00.503   +41 25 39.02  1.4398 2.0732 114.8 22.5 4.69  92
2019 04 22 12  16 39 59.977   +41 26 25.73  1.4397 2.0732 114.8 22.5 4.73  91
2019 04 22 13  16 39 59.447   +41 27 12.42  1.4397 2.0731 114.8 22.5 4.78  91
2019 04 22 14  16 39 58.914   +41 27 59.06  1.4396 2.0731 114.8 22.5 4.83  91
2019 04 22 15  16 39 58.376   +41 28 45.66  1.4395 2.0731 114.8 22.5 4.87  91
2019 04 22 16  16 39 57.835   +41 29 32.23  1.4395 2.0730 114.8 22.5 4.92  91
2019 04 22 17  16 39 57.290   +41 30 18.76  1.4394 2.0730 114.8 22.5 4.96  91
2019 04 22 18  16 39 56.740   +41 31 05.24  1.4394 2.0730 114.8 22.5 5.01  91
2019 04 22 19  16 39 56.187   +41 31 51.69  1.4393 2.0729 114.8 22.5 5.06  91
2019 04 22 20  16 39 55.630   +41 32 38.11  1.4393 2.0729 114.8 22.5 5.10  91
2019 04 22 21  16 39 55.070   +41 33 24.48  1.4392 2.0729 114.8 22.5 5.15  91
2019 04 22 22  16 39 54.505   +41 34 10.81  1.4392 2.0728 114.8 22.5 5.20  91
2019 04 22 23  16 39 53.937   +41 34 57.11  1.4391 2.0728 114.8 22.5 5.24  91
2019 04 23 00  16 39 53.364   +41 35 43.37  1.4391 2.0727 114.8 22.5 5.29  91
2019 04 23 01  16 39 52.788   +41 36 29.59  1.4390 2.0727 114.8 22.5 5.34  91
2019 04 23 02  16 39 52.208   +41 37 15.77  1.4389 2.0727 114.8 22.5 5.39  91
2019 04 23 03  16 39 51.624   +41 38 01.91  1.4389 2.0726 114.8 22.5 5.43  91
2019 04 23 04  16 39 51.036   +41 38 48.01  1.4388 2.0726 114.8 22.5 5.48  91
2019 04 23 05  16 39 50.444   +41 39 34.07  1.4388 2.0726 114.8 22.5 5.53  91
2019 04 23 06  16 39 49.848   +41 40 20.10  1.4387 2.0725 114.8 22.5 5.58  91
2019 04 23 07  16 39 49.249   +41 41 06.08  1.4387 2.0725 114.8 22.5 5.63  91
2019 04 23 08  16 39 48.645   +41 41 52.03  1.4386 2.0724 114.8 22.5 5.68  91
2019 04 23 09  16 39 48.038   +41 42 37.93  1.4386 2.0724 114.8 22.5 5.73  91
2019 04 23 10  16 39 47.427   +41 43 23.80  1.4385 2.0724 114.8 22.5 5.78  91
2019 04 23 11  16 39 46.812   +41 44 09.63  1.4385 2.0723 114.8 22.5 5.83  91
2019 04 23 12  16 39 46.193   +41 44 55.42  1.4384 2.0723 114.8 22.5 5.88  91
2019 04 23 13  16 39 45.570   +41 45 41.16  1.4384 2.0723 114.8 22.5 5.93  91
2019 04 23 14  16 39 44.943   +41 46 26.87  1.4383 2.0722 114.8 22.5 5.98  91